カタログに戻る

CZ-4 R/B

運用中SSO
NORAD 19468·ROCKET BODY·🇨🇳 China

打ち上げ Sep 6, 1988 から Taiyuan Satellite Launch Center

Loading…

次のパス (今後24時間)

TLE

最新Source: Space-Track

元期: Sep 14, 2026, 14:56 UTC

1 19468U 88080B   26257.62229249 -.00000215  00000-0 -10656-3 0  9991
2 19468  98.9491 304.9656 0071927  42.8619 119.8369 14.03771389946738

AllMySatでCZ-4 R/Bをリアルタイム追跡

Download on the App Store